AO-07 1 07530U 74089B 23292.52685182 -.00000034 00000-0 74743-4 0 9995 2 07530 101.9614 280.0982 0012067 184.6887 290.4914 12.53668232238758 UO-11 1 14781U 84021B 23292.49940754 .00003052 00000-0 35973-3 0 9996 2 14781 97.6739 264.7509 0009037 143.2874 216.8962 14.85450298112593 AO-16 1 20439U 90005D 23292.80519767 .00000410 00000-0 16599-3 0 9991 2 20439 98.8939 286.2979 0010428 193.2709 289.3016 14.33190678763002 LO-19 1 20442U 90005G 23292.50030825 .00000428 00000-0 17200-3 0 9994 2 20442 98.8596 271.7651 0011840 168.9347 191.2099 14.33345541763156 AO-27 1 22825U 93061C 23292.58512419 .00000259 00000-0 11734-3 0 9996 2 22825 98.8269 337.3991 0009423 68.2656 291.9528 14.30364479568072 IO-26 1 22826U 93061D 23292.13731468 .00000287 00000-0 12707-3 0 9997 2 22826 98.8216 336.8065 0009810 56.1592 304.0522 14.30731847568286 FO-29 1 24278U 96046B 23292.85520016 .00000059 00000-0 92887-4 0 9995 2 24278 98.5471 254.5100 0351218 93.5762 270.5608 13.53157272342045 NOAA-15 1 25338U 98030A 23292.80941375 .00000349 00000-0 16329-3 0 9996 2 25338 98.5965 319.6872 0009474 314.2185 45.8217 14.26415041323024 GO-32 1 25397U 98043D 23292.87792911 .00000268 00000-0 13672-3 0 9990 2 25397 98.8857 251.4997 0002182 113.5178 246.6229 14.23928590313291 ISS 1 25544U 98067A 23292.81996080 .00027102 00000-0 49048-3 0 9999 2 25544 51.6412 71.1873 0000507 96.1054 263.9992 15.49458395421128 NO-44 1 26931U 01043C 23292.26205796 .00000564 00000-0 24540-3 0 9997 2 26931 67.0504 236.4308 0006774 257.0679 102.9666 14.31017125151339 SO-50 1 27607U 02058C 23292.70520701 .00002737 00000-0 39012-3 0 9994 2 27607 64.5551 243.0652 0055180 197.6997 162.2186 14.77790141120830 CO-55 1 27844U 03031E 23292.85898377 .00000713 00000-0 33638-3 0 9992 2 27844 98.6806 298.3148 0010739 121.1800 239.0433 14.22924251 53499 CO-57 1 27848U 03031J 23291.99927655 .00000618 00000-0 29682-3 0 9990 2 27848 98.6840 297.8333 0010414 137.6058 222.5926 14.22414063 53105 RS-22 1 27939U 03042A 23292.82461051 .00002746 00000-0 47803-3 0 9998 2 27939 98.2614 80.8862 0013464 102.1257 34.0788 14.68854243 72835 NOAA-18 1 28654U 05018A 23292.83578716 .00000415 00000-0 24581-3 0 9995 2 28654 98.8996 6.5673 0014604 31.1433 329.0602 14.13034386949178 CO-58 1 28895U 05043F 23292.57359132 .00003400 00000-0 62473-3 0 9999 2 28895 98.1713 63.8451 0016862 43.3008 316.9517 14.66242529959030 CO-65 1 32785U 08021C 23292.46911702 .00007469 00000-0 71322-3 0 9998 2 32785 97.7233 255.9510 0013629 56.2745 303.9771 14.93504547839434 AAUSAT2 1 32788U 08021F 23292.45763211 .00020713 00000-0 13775-2 0 9994 2 32788 97.5743 269.4396 0004535 303.0067 57.0725 15.07178620841804 DO-64 1 32789U 08021G 23292.83312281 .00430949 00000-0 36257-2 0 9990 2 32789 97.2829 315.3936 0004144 93.1098 267.0638 15.68549482846766 CO-66 1 32791U 08021J 23292.48778026 .00011720 00000-0 97916-3 0 9999 2 32791 97.6732 261.3531 0011921 7.5596 352.5804 14.98623398840344 RS-30 1 32953U 08025A 23292.87025394 .00000055 00000-0 32382-3 0 9994 2 32953 82.5026 239.5323 0018268 274.2132 85.6860 12.43130771699141 PRISM 1 33493U 09002B 23292.80862552 .00020092 00000-0 12458-2 0 9992 2 33493 98.2398 316.3101 0014619 354.6918 5.4152 15.09693982802532 NOAA-19 1 33591U 09005A 23292.82524563 .00000340 00000-0 20738-3 0 9998 2 33591 99.0852 340.6635 0012985 250.7944 109.1822 14.12846235757546 SRMSAT 1 37841U 11058D 23292.04809860 .00000646 00000-0 20909-3 0 9990 2 37841 19.9709 181.1162 0011730 313.0421 76.4836 14.10965938620329 HRBE 1 37855U 11061F 23292.04988713 .00050255 00000-0 12608-2 0 9991 2 37855 101.7052 324.4618 0101516 18.8810 341.6138 15.34645761655503 RS-40 1 38735U 12041C 23292.87302086 .00000008 00000-0 -15186-4 0 9990 2 38735 82.4747 320.3524 0017772 28.8596 331.3462 12.42597125509308 ZACUBE-1 1 39417U 13066B 23292.44309956 .00007055 00000-0 79006-3 0 9990 2 39417 97.7016 249.9314 0051933 237.5202 122.0988 14.86182511535640 Delfi-N3xt 1 39428U 13066N 23292.73364125 .00007937 00000-0 11020-2 0 9993 2 39428 97.8318 213.2508 0108650 147.8614 212.9280 14.74107435530655 GOMX-1 1 39430U 13066Q 23292.87655712 .00005007 00000-0 86130-3 0 9997 2 39430 97.7596 176.6794 0142626 299.0866 59.6117 14.62526577527755 LO-74 1 39440U 13066AA 23292.78199239 .00008728 00000-0 10940-2 0 9993 2 39440 97.7845 237.6073 0073297 343.2637 16.6157 14.80532332533789 AO-73 1 39444U 13066AE 23292.38809083 .00008598 00000-0 91664-3 0 9996 2 39444 97.6882 252.5547 0050153 221.0332 138.7108 14.88175386534105 SPROUT 1 39770U 14029E 23292.60935824 .00048835 00000-0 30462-2 0 9992 2 39770 97.9992 64.2033 0006419 260.6992 99.3510 15.09323117510875 DTUSAT-2 1 40030U 14033W 23292.34626450 .00008480 00000-0 78944-3 0 9991 2 40030 97.9792 234.6345 0008749 233.3650 126.6765 14.94521704506538 EO-80 1 40032U 14033Y 23292.78986651 .00010060 00000-0 93475-3 0 9996 2 40032 97.9773 235.1018 0008679 232.6214 127.4216 14.94546180507099 HODOYOSHI-1 1 40299U 14070B 23292.79532677 .00022679 00000-0 62287-3 0 9994 2 40299 97.1784 352.3861 0009628 182.1738 177.9467 15.37194845497924 GRIFEX 1 40379U 15003D 23292.64868873 .00096322 00000-0 13104-2 0 9993 2 40379 99.0851 260.7514 0059824 193.9697 165.9900 15.55098015482625 XW-2C 1 40906U 15049H 23292.83412603 .00024170 00000-0 82469-3 0 9999 2 40906 97.4944 300.6951 0013079 84.8089 275.4643 15.30252224447438 XW-2D 1 40907U 15049J 23292.79461824 .00030604 00000-0 95511-3 0 9995 2 40907 97.4914 301.5931 0011996 78.5608 281.6981 15.33088087447540 LILACSAT-2 1 40908U 15049K 23292.79886461 .00010733 00000-0 47783-3 0 9993 2 40908 97.5291 295.6740 0015409 112.6676 247.6191 15.21537298446734 XW-2E 1 40909U 15049L 23292.77241625 .00079979 00000-0 14553-2 0 9994 2 40909 97.4453 309.4998 0008003 52.3081 307.8894 15.49196964448355 XW-2F 1 40910U 15049M 23292.82817313 .00075262 00000-0 14104-2 0 9998 2 40910 97.4555 308.8172 0008693 52.7710 307.4332 15.48364436448099 XW-2B 1 40911U 15049N 23292.81140313 .00028903 00000-0 91089-3 0 9995 2 40911 97.4891 301.9623 0012047 80.1014 280.1587 15.32787209447423 DCBB 1 40912U 15049P 23292.85603321 .00129213 00000-0 16069-2 0 9993 2 40912 97.4040 314.1999 0004736 8.9751 351.1589 15.59518458448928 IO-86 1 40931U 15052B 23292.51300027 .00001731 00000-0 14867-3 0 9997 2 40931 6.0002 278.9367 0013527 257.1868 102.6748 14.77423725435657 ChubuSat-2 1 41338U 16012B 23292.60383853 .00006934 00000-0 46793-3 0 9997 2 41338 31.0006 141.7418 0012432 338.4363 21.5749 15.05177161421132 ChubuSat-3 1 41339U 16012C 23292.87975841 .00006431 00000-0 43656-3 0 9998 2 41339 31.0069 137.3785 0012348 347.8549 12.1789 15.04927622421163 Horyu-4 1 41340U 16012D 23292.82228593 .00013975 00000-0 82912-3 0 9999 2 41340 31.0030 100.4795 0011555 51.2233 308.9436 15.10104014421568 e-st@r-II 1 41459U 16025D 23292.85655656 .00067814 00000-0 14830-2 0 9995 2 41459 98.1674 147.5453 0088590 23.4115 337.1123 15.39773604412018 Lapan A3 1 41603U 16040E 23292.84277110 .00004129 00000-0 17694-3 0 9999 2 41603 97.1595 312.6606 0010972 230.9210 129.1052 15.23243787406464 Pratham 1 41783U 16059A 23292.06615935 .00001423 00000-0 27662-3 0 9993 2 41783 97.8597 317.6311 0034207 69.2844 291.2021 14.64221096377101 TY-1 1 41844U 16066D 23292.83516681 .00480591 00000-0 17613-2 0 9993 2 41844 97.3497 317.6197 0001325 222.0219 138.0951 15.87172549387177 CAS-2T 1 41847U 16066G 23292.55407860 .00003466 00000-0 51870-3 0 9999 2 41847 98.4915 0.4755 0358052 183.9575 175.8766 14.40179505364700 CAS-4B 1 42759U 17034B 23292.89635743 .00015371 00000-0 70616-3 0 9995 2 42759 43.0126 141.1757 0011415 200.0543 159.9858 15.20127817350598 CAS-4A 1 42761U 17034D 23292.84590316 .00017025 00000-0 77992-3 0 9991 2 42761 43.0119 139.9669 0012132 200.0805 159.9568 15.20157145350593 NIUSat 1 42766U 17036B 23292.30518540 .00068668 00000-0 12840-2 0 9997 2 42766 97.1438 321.4099 0008142 24.7507 335.4133 15.48460490351751 Aalto 1 1 42775U 17036L 23292.07388591 .00038348 00000-0 91423-3 0 9999 2 42775 97.1406 318.9136 0009228 30.8028 329.3759 15.41429500351566 URSA MAIOR 1 42776U 17036M 23292.39677541 .00045537 00000-0 97731-3 0 9997 2 42776 97.1409 321.0215 0008308 25.8555 334.3107 15.44542198351712 Max Valier Sat 1 42778U 17036P 23292.03811601 .00046450 00000-0 94138-3 0 9990 2 42778 97.1391 324.4266 0006958 28.4511 331.7117 15.46233605351812 Pegasus 1 42784U 17036V 23292.37556950 .00135704 00000-0 14207-2 0 9996 2 42784 97.1300 329.3574 0003471 15.5029 344.6336 15.63981274352260 SKCUBE 1 42789U 17036AA 23292.87891898 .00404604 00000-0 18541-2 0 9992 2 42789 97.1188 333.5411 0001200 307.5478 52.5682 15.82646861352581 VENTA 1 1 42791U 17036AC 23292.42995464 .00139165 00000-0 14283-2 0 9996 2 42791 97.1293 330.6765 0002830 20.4581 339.6792 15.64477930352330 D-SAT 1 42794U 17036AF 23292.72177550 .00007621 00000-0 58597-3 0 9998 2 42794 97.4774 279.1570 0111594 242.0428 116.9464 14.97110932344582 TechnoSat 1 42829U 17042E 23292.76735080 .00004851 00000-0 45413-3 0 9991 2 42829 97.3839 122.8016 0013422 160.3260 199.8481 14.94434164341093 AO-91 1 43017U 17073E 23292.20174633 .00014513 00000-0 97456-3 0 9995 2 43017 97.6072 171.6653 0227615 19.5336 341.4427 14.88102628319612 AO-92 1 43137U 18004AC 23292.47428011 .00113219 00000-0 13820-2 0 9999 2 43137 97.3141 13.9487 0003193 38.6840 321.4645 15.60072709321583 TianYi 2 1 43155U 18008A 23292.85683876 .00040314 00000-0 13116-2 0 9990 2 43155 97.2814 342.7428 0010511 220.0849 139.9618 15.31709799317698 Zhou Enlai 1 43156U 18008B 23292.86128787 .00047008 00000-0 14667-2 0 9996 2 43156 97.2862 343.1040 0008228 219.4574 140.6070 15.33035340317637 TianYi 6 1 43158U 18008D 23292.85577601 .00034498 00000-0 12577-2 0 9997 2 43158 97.2897 339.3394 0008480 225.2218 134.8333 15.28058260317420 S-Net D 1 43186U 18014G 23292.51605030 .00006760 00000-0 52483-3 0 9998 2 43186 97.6078 193.9018 0015600 110.4672 249.8229 15.01568214312202 S-Net B 1 43187U 18014H 23292.58418932 .00006700 00000-0 52012-3 0 9991 2 43187 97.6089 193.8970 0016027 107.3791 252.9188 15.01566958312215 S-Net A 1 43188U 18014J 23292.51744810 .00006882 00000-0 53407-3 0 9992 2 43188 97.6091 193.9274 0015996 107.9285 252.3685 15.01569746312208 S-Net C 1 43189U 18014K 23292.25365959 .00006666 00000-0 51740-3 0 9995 2 43189 97.6110 193.5620 0016893 102.9594 257.3518 15.01564900310718 CubeBel-1 1 43666U 18083E 23292.85939199 .00092253 00000-0 16397-2 0 9995 2 43666 97.3658 325.9835 0007642 43.4883 316.6970 15.49821892276421 Changshagaoxin 1 43669U 18083H 23292.87349300 .00060792 00000-0 13560-2 0 9991 2 43669 97.3682 319.7662 0007084 50.9601 309.2277 15.43335840276112 Ten-Koh 1 43677U 18084G 23292.37143118 .00004540 00000-0 43173-3 0 9998 2 43677 98.0324 74.7378 0015977 97.2464 263.0572 14.93883023270591 PO-101 1 43678U 18084H 23292.85856000 .00002758 00000-0 26436-3 0 9995 2 43678 98.0418 79.5210 0010495 107.1309 253.1060 14.93969963270874 QO-100 1 43700U 18090A 23292.82549524 .00000153 00000-0 00000+0 0 9997 2 43700 0.0147 248.7628 0001035 317.1712 145.0963 1.00269550 18180 Reaktor Hello World 1 43743U 18096AA 23292.22391087 .01679019 23339-2 15396-2 0 9996 2 43743 97.2983 25.2941 0007190 298.1857 61.8702 16.13002633273664 MinXSS-2 1 43758U 18099A 23292.13179352 .00012541 00000-0 91772-3 0 9995 2 43758 97.5883 353.7894 0019511 64.7458 295.5787 15.03569323266351 AO-95 1 43770U 18099N 23292.58943342 .00010803 00000-0 83646-3 0 9996 2 43770 97.5768 350.9075 0015247 95.5410 264.7554 15.01526622266262 RANGE-B 1 43772U 18099Q 23292.16849621 .00012977 00000-0 94891-3 0 9995 2 43772 97.5607 353.5468 0006568 35.0087 325.1570 15.03726926266289 RANGE-A 1 43773U 18099R 23292.63156831 .00006856 00000-0 56076-3 0 9994 2 43773 97.5470 348.4934 0013390 67.5843 292.6798 14.99581086266202 MOVE-II 1 43780U 18099Y 23292.42851697 .00020158 00000-0 13522-2 0 9990 2 43780 97.5572 353.9712 0009732 90.9829 269.2514 15.06833047266423 SNUSat 2 1 43782U 18099AA 23292.63810458 .00008884 00000-0 69491-3 0 9994 2 43782 97.5544 351.3009 0017585 32.4402 327.7899 15.01160536266290 SnugLite 1 43784U 18099AC 23292.13745553 .00009066 00000-0 69895-3 0 9995 2 43784 97.5301 350.4208 0007594 63.5399 296.6604 15.01805882266268 ITASat 1 1 43786U 18099AE 23292.16416605 .00007887 00000-0 62256-3 0 9996 2 43786 97.5542 351.3713 0020337 79.1608 281.1904 15.00811096266236 EAGLET 1 1 43790U 18099AJ 23292.11674876 .00006794 00000-0 54728-3 0 9993 2 43790 97.5599 351.6978 0016820 74.6797 285.6285 15.00132858265951 ESEO 1 43792U 18099AL 23292.47781384 .00002605 00000-0 22373-3 0 9995 2 43792 97.5547 350.1283 0013735 67.6256 292.6421 14.98226409265999 CSIM 1 43793U 18099AM 23292.42557899 .00018032 00000-0 11991-2 0 9997 2 43793 97.5628 355.4491 0016187 67.4322 292.8617 15.07112544266271 Astrocast 0.1 1 43798U 18099AS 23292.63754566 .00016175 00000-0 11321-2 0 9998 2 43798 97.5713 354.8250 0012504 47.3560 312.8719 15.05274872266476 JO-97 1 43803U 18099AX 23292.45838811 .00011547 00000-0 86983-3 0 9996 2 43803 97.5551 351.9256 0011404 47.6502 312.5687 15.02596337266341 Suomi 100 1 43804U 18099AY 23292.15223425 .00009778 00000-0 74318-3 0 9995 2 43804 97.5656 351.4157 0019414 52.8383 307.4611 15.02200456266295 Al Farabi 2 1 43805U 18099AZ 23292.86474475 .00015313 00000-0 10939-2 0 9997 2 43805 97.5452 353.2596 0012733 42.2493 317.9712 15.04518817266483 CHOMPTT 1 43855U 18104G 23292.42452804 .00063943 00000-0 11846-2 0 9993 2 43855 85.0241 81.1370 0009015 208.0312 152.0460 15.48709918269746 ISAT 1 43879U 18111D 23292.36603774 .00013259 00000-0 94803-3 0 9994 2 43879 97.6293 195.1577 0016172 100.4139 259.8910 15.04479033260973 UWE-4 1 43880U 18111E 23292.51705804 .00011596 00000-0 83645-3 0 9994 2 43880 97.6219 195.8292 0020461 108.3468 251.9986 15.04117394261046 Sparrow 1 43881U 18111F 23292.27571655 .00013295 00000-0 94135-3 0 9997 2 43881 97.6380 196.5746 0012280 136.4756 223.7441 15.04892380263039 Lume 1 1 43908U 18111AJ 23292.28685897 .00102295 00000-0 12807-2 0 9996 2 43908 97.1121 174.4833 0012791 100.7564 259.5134 15.59352089268631 FO-99 1 43937U 19003F 23292.38392219 .00429765 00000-0 17878-2 0 9990 2 43937 97.0643 319.8920 0008079 161.3954 198.7613 15.84623243265457 AstroCast 0.2 1 44083U 19018F 23292.17013447 .00319727 00000-0 15631-2 0 9990 2 44083 97.2425 354.8135 0003629 232.3806 127.7133 15.81453703253756 AISTechSat 3 1 44103U 19018AB 23292.82737342 .00067747 00000-0 11777-2 0 9991 2 44103 97.2342 351.0120 0007322 169.7901 190.3501 15.50553052253752 AISat 1 1 44104U 19018AC 23292.55502843 .00051008 00000-0 76878-3 0 9995 2 44104 97.3717 26.7059 0034274 161.7878 198.4612 15.53939226254980 Prox-1 1 44339U 19036A 23292.81023110 .00013175 00000-0 25615-2 0 9994 2 44339 24.0020 331.1761 0009654 194.9750 165.0458 14.61417129229923 Move-IIb 1 44398U 19038N 23292.86821050 .00237675 00000-0 23721-2 0 9994 2 44398 97.6664 283.4154 0011243 158.0816 202.0925 15.64807644237978 SONATE 1 44400U 19038Q 23292.43364363 .00019622 00000-0 79622-3 0 9992 2 44400 97.6978 272.9851 0017271 233.7381 126.2261 15.24514938237148 BeeSat 9 1 44412U 19038AC 23291.48446697 .00043151 00000-0 11459-2 0 9997 2 44412 97.6842 276.8854 0011010 210.5073 149.5531 15.38093264237050 JAISAT-1 1 44419U 19038F 23292.45421932 .00052974 00000-0 13925-2 0 9990 2 44419 97.6831 279.0230 0010905 201.6923 158.3861 15.38357445237581 Taurus 1 1 44530U 19059C 23292.77954305 .00009626 00000-0 24151-2 0 9996 2 44530 98.5618 42.6523 0012924 75.0746 285.1878 14.51485006216703 Duchifat 3 1 44854U 19089C 23292.73937694 .00017580 00000-0 10960-2 0 9997 2 44854 36.9611 65.6191 0007713 268.5938 91.3923 15.08851390211630 OPS-SAT 1 44878U 19092F 23292.47497425 .00058187 00000-0 13549-2 0 9995 2 44878 97.4682 123.4229 0008234 51.8386 308.3602 15.42051025212899 TO-108 1 44881U 19093C 23292.80883680 .00001962 00000-0 24810-3 0 9992 2 44881 97.8526 9.1056 0015398 36.1338 324.0912 14.82888656207269 FloripaSat 1 1 44885U 19093G 23292.82444482 .00007857 00000-0 88081-3 0 9990 2 44885 97.8602 12.6478 0013890 35.5704 324.6435 14.87024664207464 RS-44 1 44909U 19096E 23292.68725887 .00000025 00000-0 60998-4 0 9993 2 44909 82.5175 265.2066 0216223 255.8449 101.8542 12.79723474178133 BY70-2 1 45857U 20042B 23292.85595638 .00044414 00000-0 38467-2 0 9991 2 45857 97.9183 13.6390 0007564 314.0135 46.0462 14.96937238178144 UPMSat 2 1 46276U 20061E 23292.13208325 .00017222 00000-0 66939-3 0 9996 2 46276 97.3324 357.2382 0000446 147.4209 212.7058 15.26112797173171 AmicalSat 1 46287U 20061R 23292.42070488 .00025006 00000-0 10331-2 0 9990 2 46287 97.3856 356.7978 0002481 45.2705 314.8734 15.23987570172603 SALSAT 1 46495U 20068K 23292.43908894 .00008606 00000-0 54363-3 0 9991 2 46495 97.7834 241.9466 0016894 61.8102 298.4830 15.09195591167807 CAPE 3 1 47309U 21002A 23292.58625484 .00093574 00000-0 14115-2 0 9990 2 47309 60.6716 296.3815 0022730 15.2577 344.9205 15.53885429153529 AO-109 1 47311U 21002C 23292.54891181 .00062251 00000-0 11644-2 0 9990 2 47311 60.6776 297.6956 0020358 15.9223 344.2512 15.48074004153478 ExoCube 2 1 47319U 21002L 23292.55975515 .00058334 00000-0 11373-2 0 9999 2 47319 60.6756 300.4662 0021083 14.8596 345.3117 15.46888941153393 UVSQ-SAT 1 47438U 21006AB 23292.12197537 .00032817 00000-0 11542-2 0 9994 2 47438 97.3680 347.7148 0008791 12.9677 347.1788 15.29244556151550 YUSAT 1 1 47439U 21006AC 23292.15096149 .00045631 00000-0 14055-2 0 9995 2 47439 97.3687 349.1062 0007750 8.2171 351.9197 15.33457264151644 SOMP 2b 1 47445U 21006AJ 23292.11259920 .00031715 00000-0 11489-2 0 9992 2 47445 97.3644 346.7463 0008907 19.1007 341.0565 15.28282285151514 IDEASSat 1 47458U 21006AX 23292.15491821 .00028316 00000-0 10579-2 0 9990 2 47458 97.3741 347.5875 0008354 19.6140 340.5419 15.27293525151498 CubeSX-Sirius-HSE 1 47951U 21022V 23292.86733215 .00021777 00000-0 11178-2 0 9990 2 47951 97.4796 188.3046 0015234 262.9660 96.9841 15.16432839141900 CubeSX-HSE 1 47952U 21022W 23292.83493639 .00019856 00000-0 10177-2 0 9994 2 47952 97.4798 188.3320 0015000 262.1862 97.7668 15.16507782141901 KSU-Cubesat 1 47954U 21022Y 23292.20983776 .00022173 00000-0 10972-2 0 9992 2 47954 97.4803 188.2917 0014375 262.5902 97.3698 15.17726390141564 GRBAlpha 1 47959U 21022AD 23292.81458521 .00020201 00000-0 10328-2 0 9994 2 47959 97.4798 188.4163 0014960 262.7506 97.2026 15.16592917140725 Orbicraft-Zorkiy 1 47960U 21022AE 23292.83776900 .00022206 00000-0 11037-2 0 9997 2 47960 97.4835 189.0704 0014421 260.5540 99.4064 15.17570099141447 STECCO 1 47962U 21022AG 23292.85015187 .00045547 00000-0 17353-2 0 9994 2 47962 97.4805 192.7605 0008155 234.8819 125.1656 15.26538730141010 MO-110 1 47964U 21022AJ 23292.23138602 .00046666 00000-0 17169-2 0 9994 2 47964 97.4818 192.9439 0009939 232.1560 127.8781 15.27674303140967 FEES 1 48082U 21022AL 23292.36880565 .00111907 00000-0 26574-2 0 9993 2 48082 97.4785 196.0171 0005698 185.2058 174.9130 15.41246886140887 TUBIN 1 48900U 21059X 23292.85635860 .00018353 00000-0 80111-3 0 9991 2 48900 97.6173 67.5942 0008048 203.7490 156.3376 15.22164084128122 IT-SPINS 1 49017U 21013G 23292.09184842 .00093474 00000-0 13776-2 0 9995 2 49017 51.5865 186.6463 0006100 105.8266 254.3397 15.54605623128890 LEDSAT 1 49069U 21073D 23292.39729346 .00017173 00000-0 86847-3 0 9997 2 49069 97.4699 1.2909 0023634 52.1584 308.1783 15.16859551119713 CUTE 1 49263U 21088D 23292.15336851 .00017549 00000-0 10373-2 0 9995 2 49263 97.5300 355.9381 0016736 192.8709 167.2096 15.11422860112996 TeikyoSat 4 1 49396U 21102B 23292.86774245 .00003557 00000-0 26915-3 0 9994 2 49396 97.4995 340.9449 0014425 26.7497 333.4470 15.02863020106491 Z-Sat 1 49399U 21102E 23292.85732477 .00005719 00000-0 39593-3 0 9995 2 49399 97.4695 342.1054 0021650 9.3366 350.8259 15.05858116106645 KOSEN 1 1 49402U 21102H 23292.11027340 .00007295 00000-0 47662-3 0 9992 2 49402 97.4615 342.1310 0020105 358.2847 1.8309 15.07942781106622 HO-113 1 50466U 21131B 23292.84092363 .00001167 00000-0 39139-3 0 9995 2 50466 98.5453 13.9713 0005222 121.9703 238.1992 14.39129334 95282 Tevel-3 1 50988U 22002E 23292.81220938 .00045776 00000-0 14911-2 0 9994 2 50988 97.4182 359.3358 0007104 148.4400 211.7269 15.31669852 97798 Tevel-8 1 50989U 22002F 23292.83682166 .00044270 00000-0 14459-2 0 9997 2 50989 97.4200 359.4329 0007140 147.2408 212.9277 15.31591941 97799 Tevel-5 1 50998U 22002Q 23292.81005061 .00048981 00000-0 15379-2 0 9993 2 50998 97.4177 359.8886 0008014 143.5734 216.6055 15.32826176 97838 Tevel-6 1 50999U 22002R 23292.80881265 .00048784 00000-0 15323-2 0 9991 2 50999 97.4175 359.8788 0008025 143.3229 216.8564 15.32814854 97834 Tevel-1 1 51013U 22002AF 23292.82635838 .00044529 00000-0 14537-2 0 9993 2 51013 97.4174 359.2699 0007031 148.1430 212.0238 15.31606265 97794 NO-116 1 51031U 22002AZ 23292.42781133 .00120378 00000-0 23553-2 0 9994 2 51031 97.4290 4.0596 0005956 146.2638 213.8992 15.46958869 98004 IRIS-A 1 51044U 22002BN 23292.63565607 .00019306 00000-0 83663-3 0 9994 2 51044 97.4202 356.3254 0008145 156.0870 204.0747 15.22395273 97574 Tevel-7 1 51062U 22002CG 23292.83577851 .00044500 00000-0 14519-2 0 9997 2 51062 97.4195 359.4023 0007106 147.0882 213.0803 15.31624879 97796 Tevel-4 1 51063U 22002CH 23292.84732048 .00045480 00000-0 14876-2 0 9994 2 51063 97.4194 359.3817 0007139 146.5793 213.5901 15.31538525 97793 Tevel-2 1 51069U 22002CP 23292.81346671 .00046019 00000-0 14985-2 0 9990 2 51069 97.4180 359.3052 0007071 148.3559 211.8109 15.31680056 97798 DELFI-PQ 1 51074U 22002CU 23292.21333725 .00154489 00000-0 23886-2 0 9997 2 51074 97.4414 7.3098 0006202 171.0425 189.0940 15.53519961 98121 SO-115 1 51080U 22002DA 23291.95484760 .00056527 00000-0 15665-2 0 9990 2 51080 97.4469 3.5046 0009024 176.1812 183.9502 15.36721499 97847 SO-114 1 51081U 22002DB 23292.44465845 .00060443 00000-0 16522-2 0 9994 2 51081 97.4455 4.0030 0009077 174.1693 185.9659 15.37129349 97926 OreSat0 1 52017U 22026K 23292.46126260 .00035200 00000-0 11859-2 0 9998 2 52017 97.5108 295.6799 0019777 14.5567 345.6239 15.30476852 88518 Planetum 1 1 52738U 22057G 23292.78403990 .00030081 00000-0 12100-2 0 9997 2 52738 97.5492 49.1289 0005921 275.7514 84.3048 15.24836599 77614 Foresail-1 1 52766U 22057AL 23292.29010404 .00019278 00000-0 83264-3 0 9993 2 52766 97.5624 49.4513 0010541 257.5739 102.4318 15.22491473 77546 SNUGLITE 2 1 52899U 22065F 23292.37779399 .00002725 00000-0 58057-3 0 9994 2 52899 98.0876 73.9255 0007807 180.4498 179.6697 14.59729403 68979 CTIM 1 52950U 22074G 23292.54270182 .00255811 00000-0 23939-2 0 9993 2 52950 44.9993 15.6627 0014905 347.9256 12.1283 15.65590566 72917 IO-117 1 53106U 22080B 23291.32127915 -.00000003 00000-0 00000+0 0 9997 2 53106 70.1387 276.9215 0008370 162.7175 197.3771 6.42557259 29665 SelfieSat 1 53951U 22057BC 23292.56755137 .00040129 00000-0 14677-2 0 9999 2 53951 97.5532 50.0532 0007677 267.4885 92.5475 15.27925578 77634 FO-118 1 54684U 22167C 23292.85720773 .00024621 00000-0 12168-2 0 9997 2 54684 97.5794 69.9992 0012045 265.6375 94.3482 15.17776501 47562 SSS-2B 1 56184U 23054G 23292.82655068 .00027748 00000-0 10544-2 0 9990 2 56184 97.3916 186.2619 0008402 331.0755 29.0017 15.26736627 29164 CIRBE 1 56188U 23054L 23292.27836943 .00038630 00000-0 13958-2 0 9990 2 56188 97.3872 185.8091 0006906 326.9469 33.1338 15.28338475 29095 INSPIRE-Sat 7 1 56211U 23054AK 23292.52479593 .00038713 00000-0 13106-2 0 9996 2 56211 97.3889 186.6034 0010155 299.9349 60.0883 15.30438913 29166 RoseyCubesat 1 1 56212U 23054AL 23292.81242779 .00042950 00000-0 14238-2 0 9998 2 56212 97.3897 186.9963 0010182 297.5685 62.4521 15.31094220 29218 ARKSAT 1 1 56311U 98067VC 23292.74525958 .00754222 26309-3 16369-2 0 9991 2 56311 51.6254 51.8251 0009748 315.5322 44.4903 15.97662651 27924 Ex-Alta 2 1 56313U 98067VE 23292.71615275 .00946409 44476-3 17612-2 0 9999 2 56313 51.6202 51.5846 0009909 316.2502 43.7722 16.00402770 27945 NEUDOSE 1 56315U 98067VG 23292.35080361 .00272598 00000-0 15014-2 0 9990 2 56315 51.6297 59.7482 0004994 276.4649 83.5783 15.78343312 27786 YukonSat 1 56316U 98067VH 23292.35635554 .00419634 00000-0 15533-2 0 9991 2 56316 51.6277 56.7542 0006375 295.5306 64.5038 15.86459656 27843 URESAT-1 1 56992U 23084BU 23292.55246600 .00026761 00000-0 14103-2 0 9997 2 56992 97.5162 47.2487 0017251 147.7730 212.4560 15.15430738 19456 MRC-100 1 56993U 23084BV 23292.54715114 .00029831 00000-0 15597-2 0 9997 2 56993 97.5168 47.2662 0017043 148.5511 211.6744 15.15689385 19463 UmKA 1 (RS40S) 1 57172U 23091G 23292.86102801 .00007166 00000-0 51562-3 0 9993 2 57172 97.6504 342.4360 0016673 217.4629 142.5436 15.04417897 17178 CubeBel-2 (EU11S) 1 57175U 23091K 23292.83307227 .00010261 00000-0 74263-3 0 9995 2 57175 97.6482 342.3109 0015648 232.7154 127.2646 15.04096715 17164 /EX